Time,TemperatureF,DewpointF,PressureIn,WindDirection,WindDirectionDegrees,WindSpeedMPH,WindSpeedGustMPH,Humidity,HourlyPrecipIn,Conditions,Clouds,dailyrainin,SoftwareType,DateUTC
2013-03-07 00:01:00,40.0,15.0,-100.00,SSW,200,29.0,43.0,35,0.00,,,-99.99,,2013-03-07 07:01:00,
2013-03-07 00:11:00,41.0,16.0,-100.00,SSW,200,34.0,44.0,36,0.00,,,-99.99,,2013-03-07 07:11:00,
2013-03-07 00:21:00,40.0,16.0,-100.00,SSW,205,30.0,42.0,37,0.00,,,-99.99,,2013-03-07 07:21:00,
2013-03-07 00:32:00,40.0,16.0,-100.00,SSW,206,26.0,37.0,36,0.00,,,-99.99,,2013-03-07 07:32:00,
2013-03-07 00:42:00,40.0,16.0,-100.00,SSW,206,29.0,39.0,37,0.00,,,-99.99,,2013-03-07 07:42:00,
2013-03-07 00:52:00,40.0,16.0,-100.00,SSW,206,31.0,40.0,37,0.00,,,-99.99,,2013-03-07 07:52:00,
2013-03-07 01:02:00,40.0,17.0,-100.00,SSW,205,36.0,45.0,38,0.00,,,-99.99,,2013-03-07 08:02:00,
2013-03-07 01:12:00,40.0,16.0,-100.00,SSW,203,35.0,45.0,37,0.00,,,-99.99,,2013-03-07 08:12:00,
2013-03-07 01:22:00,40.0,16.0,-100.00,SSW,203,36.0,44.0,38,0.00,,,-99.99,,2013-03-07 08:22:00,
2013-03-07 01:33:00,40.0,16.0,-100.00,SSW,200,37.0,46.0,37,0.00,,,-99.99,,2013-03-07 08:33:00,
2013-03-07 01:43:00,40.0,16.0,-100.00,SSW,200,35.0,42.0,38,0.00,,,-99.99,,2013-03-07 08:43:00,
2013-03-07 01:52:00,40.0,15.0,-100.00,SSW,202,32.0,42.0,36,0.00,,,-99.99,,2013-03-07 08:52:00,
2013-03-07 02:03:00,39.0,15.0,-100.00,SSW,205,30.0,37.0,37,0.00,,,-99.99,,2013-03-07 09:03:00,
2013-03-07 02:12:00,39.0,16.0,-100.00,SSW,205,29.0,36.0,38,0.00,,,-99.99,,2013-03-07 09:12:00,
2013-03-07 02:22:00,39.0,15.0,-100.00,SSW,203,26.0,34.0,38,0.00,,,-99.99,,2013-03-07 09:22:00,
2013-03-07 02:32:00,39.0,16.0,-100.00,SSW,200,28.0,36.0,39,0.00,,,-99.99,,2013-03-07 09:32:00,
2013-03-07 02:42:00,39.0,16.0,-100.00,SSW,199,29.0,35.0,38,0.00,,,-99.99,,2013-03-07 09:42:00,
2013-03-07 02:52:00,39.0,15.0,-100.00,SSW,200,30.0,37.0,38,0.00,,,-99.99,,2013-03-07 09:52:00,
2013-03-07 03:03:00,39.0,16.0,-100.00,SSW,202,30.0,39.0,38,0.00,,,-99.99,,2013-03-07 10:03:00,
2013-03-07 03:12:00,39.0,16.0,-100.00,SSW,200,29.0,39.0,39,0.00,,,-99.99,,2013-03-07 10:12:00,
2013-03-07 03:23:00,39.0,16.0,-100.00,SSW,202,27.0,35.0,40,0.00,,,-99.99,,2013-03-07 10:23:00,
2013-03-07 03:33:00,38.0,16.0,-100.00,SSW,202,27.0,35.0,40,0.00,,,-99.99,,2013-03-07 10:33:00,
2013-03-07 03:42:00,38.0,16.0,-100.00,SSW,202,26.0,31.0,40,0.00,,,-99.99,,2013-03-07 10:42:00,
2013-03-07 03:52:00,38.0,16.0,-100.00,SSW,206,24.0,30.0,41,0.00,,,-99.99,,2013-03-07 10:52:00,
2013-03-07 04:02:00,38.0,16.0,-100.00,SSW,206,24.0,30.0,40,0.00,,,-99.99,,2013-03-07 11:02:00,
2013-03-07 04:12:00,38.0,16.0,-100.00,SSW,208,24.0,30.0,40,0.00,,,-99.99,,2013-03-07 11:12:00,
2013-03-07 04:23:00,38.0,17.0,-100.00,SSW,210,24.0,30.0,42,0.00,,,-99.99,,2013-03-07 11:23:00,
2013-03-07 04:33:00,38.0,17.0,-100.00,SSW,210,22.0,27.0,41,0.00,,,-99.99,,2013-03-07 11:33:00,
2013-03-07 04:42:00,38.0,17.0,-100.00,SSW,212,22.0,27.0,41,0.00,,,-99.99,,2013-03-07 11:42:00,
2013-03-07 04:52:00,38.0,17.0,-100.00,SW,215,21.0,26.0,43,0.00,,,-99.99,,2013-03-07 11:52:00,
2013-03-07 05:02:00,37.0,17.0,-100.00,SW,217,17.0,21.0,45,0.00,,,-99.99,,2013-03-07 12:02:00,
2013-03-07 05:12:00,36.0,18.0,-100.00,SW,223,15.0,19.0,46,0.00,,,-99.99,,2013-03-07 12:12:00,
2013-03-07 05:22:00,31.0,21.0,-100.00,WSW,258,16.0,20.0,65,0.00,,,-99.99,,2013-03-07 12:22:00,
2013-03-07 05:33:00,31.0,21.0,-100.00,West,263,16.0,21.0,67,0.00,,,-99.99,,2013-03-07 12:33:00,
2013-03-07 05:42:00,31.0,21.0,-100.00,WSW,257,16.0,21.0,66,0.00,,,-99.99,,2013-03-07 12:42:00,
2013-03-07 05:52:00,32.0,21.0,-100.00,WSW,256,20.0,25.0,63,0.00,,,-99.99,,2013-03-07 12:52:00,
2013-03-07 06:02:00,31.0,21.0,-100.00,WSW,250,19.0,23.0,65,0.00,,,-99.99,,2013-03-07 13:02:00,
2013-03-07 06:12:00,31.0,21.0,-100.00,WSW,250,18.0,22.0,67,0.00,,,-99.99,,2013-03-07 13:12:00,
2013-03-07 06:22:00,30.0,21.0,-100.00,WSW,247,16.0,21.0,69,0.00,,,-99.99,,2013-03-07 13:22:00,
2013-03-07 06:32:00,29.0,20.0,-100.00,WSW,239,12.0,16.0,69,0.00,,,-99.99,,2013-03-07 13:32:00,
2013-03-07 06:42:00,31.0,20.0,-100.00,SW,224,16.0,23.0,64,0.00,,,-99.99,,2013-03-07 13:42:00,
2013-03-07 06:52:00,31.0,21.0,-100.00,SW,217,21.0,25.0,66,0.00,,,-99.99,,2013-03-07 13:52:00,
2013-03-07 07:02:00,31.0,22.0,-100.00,SW,219,21.0,25.0,69,0.00,,,-99.99,,2013-03-07 14:02:00,
2013-03-07 07:12:00,31.0,22.0,-100.00,SW,219,20.0,25.0,71,0.00,,,-99.99,,2013-03-07 14:12:00,
2013-03-07 07:22:00,31.0,22.0,-100.00,SW,217,20.0,24.0,70,0.00,,,-99.99,,2013-03-07 14:22:00,
2013-03-07 07:33:00,31.0,22.0,-100.00,SW,223,17.0,22.0,69,0.00,,,-99.99,,2013-03-07 14:33:00,
2013-03-07 07:42:00,31.0,23.0,-100.00,SW,233,13.0,19.0,72,0.00,,,-99.99,,2013-03-07 14:42:00,
2013-03-07 07:52:00,31.0,23.0,-100.00,WSW,244,11.0,14.0,71,0.00,,,-99.99,,2013-03-07 14:52:00,
2013-03-07 08:03:00,31.0,22.0,-100.00,WSW,254,8.0,10.0,68,0.00,,,-99.99,,2013-03-07 15:03:00,
2013-03-07 08:12:00,33.0,21.0,-100.00,WSW,250,9.0,12.0,62,0.00,,,-99.99,,2013-03-07 15:12:00,
2013-03-07 08:22:00,34.0,21.0,-100.00,WSW,253,9.0,12.0,58,0.00,,,-99.99,,2013-03-07 15:22:00,
2013-03-07 08:32:00,34.0,22.0,-100.00,West,275,7.0,13.0,61,0.00,,,-99.99,,2013-03-07 15:32:00,
2013-03-07 08:42:00,32.0,24.0,-100.00,WNW,299,11.0,17.0,73,0.00,,,-99.99,,2013-03-07 15:42:00,
2013-03-07 08:52:00,32.0,23.0,-100.00,NW,311,14.0,17.0,70,0.00,,,-99.99,,2013-03-07 15:52:00,
2013-03-07 09:02:00,33.0,23.0,-100.00,NW,311,11.0,14.0,66,0.00,,,-99.99,,2013-03-07 16:02:00,
2013-03-07 09:12:00,33.0,23.0,-100.00,NW,311,11.0,14.0,65,0.00,,,-99.99,,2013-03-07 16:12:00,
2013-03-07 09:23:00,34.0,24.0,-100.00,NW,304,13.0,17.0,65,0.00,,,-99.99,,2013-03-07 16:23:00,
2013-03-07 09:32:00,34.0,23.0,-100.00,WNW,295,14.0,17.0,64,0.00,,,-99.99,,2013-03-07 16:32:00,
2013-03-07 09:42:00,35.0,23.0,-100.00,West,272,9.0,14.0,62,0.00,,,-99.99,,2013-03-07 16:42:00,
2013-03-07 09:52:00,36.0,24.0,-100.00,West,270,9.0,12.0,60,0.00,,,-99.99,,2013-03-07 16:52:00,
2013-03-07 10:02:00,38.0,23.0,-100.00,West,281,7.0,11.0,56,0.00,,,-99.99,,2013-03-07 17:02:00,
2013-03-07 10:12:00,37.0,26.0,-100.00,North,0,4.0,9.0,65,0.00,,,-99.99,,2013-03-07 17:12:00,
2013-03-07 10:22:00,36.0,27.0,-100.00,North,3,4.0,9.0,69,0.00,,,-99.99,,2013-03-07 17:22:00,
2013-03-07 10:32:00,36.0,26.0,-100.00,NNE,17,7.0,9.0,68,0.00,,,-99.99,,2013-03-07 17:32:00,
2013-03-07 10:42:00,36.0,26.0,-100.00,NNE,27,6.0,9.0,66,0.00,,,-99.99,,2013-03-07 17:42:00,
2013-03-07 10:53:00,37.0,27.0,-100.00,NNE,13,6.0,8.0,66,0.00,,,-99.99,,2013-03-07 17:53:00,
2013-03-07 11:03:00,38.0,26.0,-100.00,NNE,31,4.0,6.0,62,0.00,,,-99.99,,2013-03-07 18:03:00,
2013-03-07 11:12:00,38.0,26.0,-100.00,NNE,17,4.0,6.0,62,0.00,,,-99.99,,2013-03-07 18:12:00,
2013-03-07 11:22:00,37.0,27.0,-100.00,North,8,7.0,12.0,67,0.00,,,-99.99,,2013-03-07 18:22:00,
2013-03-07 11:32:00,38.0,27.0,-100.00,NNE,13,6.0,10.0,66,0.00,,,-99.99,,2013-03-07 18:32:00,
2013-03-07 11:42:00,38.0,27.0,-100.00,NNW,337,7.0,11.0,63,0.00,,,-99.99,,2013-03-07 18:42:00,
2013-03-07 11:52:00,39.0,27.0,-100.00,NW,325,4.0,7.0,60,0.00,,,-99.99,,2013-03-07 18:52:00,
2013-03-07 12:03:00,39.0,26.0,-100.00,NNW,346,6.0,9.0,61,0.00,,,-99.99,,2013-03-07 19:03:00,
2013-03-07 12:12:00,40.0,26.0,-100.00,NNW,337,5.0,7.0,59,0.00,,,-99.99,,2013-03-07 19:12:00,
2013-03-07 12:23:00,39.0,26.0,-100.00,North,360,4.0,7.0,58,0.00,,,-99.99,,2013-03-07 19:23:00,
2013-03-07 12:34:00,40.0,27.0,-100.00,NE,42,4.0,7.0,58,0.00,,,-99.99,,2013-03-07 19:34:00,
2013-03-07 12:43:00,41.0,27.0,-100.00,East,79,2.0,4.0,57,0.00,,,-99.99,,2013-03-07 19:43:00,
2013-03-07 12:52:00,41.0,26.0,-100.00,ENE,59,2.0,6.0,54,0.00,,,-99.99,,2013-03-07 19:52:00,
2013-03-07 13:02:00,42.0,26.0,-100.00,NNE,25,1.0,4.0,53,0.00,,,-99.99,,2013-03-07 20:02:00,
2013-03-07 13:13:00,41.0,26.0,-100.00,North,1,1.0,4.0,55,0.00,,,-99.99,,2013-03-07 20:13:00,
2013-03-07 13:22:00,41.0,25.0,-100.00,NNW,333,4.0,6.0,54,0.00,,,-99.99,,2013-03-07 20:22:00,
2013-03-07 13:33:00,42.0,26.0,-100.00,NNW,339,6.0,9.0,52,0.00,,,-99.99,,2013-03-07 20:33:00,
2013-03-07 13:42:00,43.0,27.0,-100.00,North,1,4.0,8.0,53,0.00,,,-99.99,,2013-03-07 20:42:00,
2013-03-07 13:53:00,42.0,26.0,-100.00,North,0,6.0,11.0,51,0.00,,,-99.99,,2013-03-07 20:53:00,
2013-03-07 14:02:00,42.0,26.0,-100.00,NNW,347,6.0,10.0,52,0.00,,,-99.99,,2013-03-07 21:02:00,
2013-03-07 14:12:00,44.0,26.0,-100.00,North,4,5.0,8.0,50,0.00,,,-99.99,,2013-03-07 21:12:00,
2013-03-07 14:22:00,42.0,26.0,-100.00,NNW,333,5.0,7.0,51,0.00,,,-99.99,,2013-03-07 21:22:00,
2013-03-07 14:32:00,44.0,24.0,-100.00,North,11,3.0,7.0,44,0.00,,,-99.99,,2013-03-07 21:32:00,
2013-03-07 14:42:00,43.0,25.0,-100.00,NE,38,4.0,9.0,48,0.00,,,-99.99,,2013-03-07 21:42:00,
2013-03-07 14:52:00,43.0,22.0,-100.00,ENE,59,6.0,12.0,43,0.00,,,-99.99,,2013-03-07 21:52:00,
2013-03-07 15:02:00,43.0,23.0,-100.00,SE,143,4.0,7.0,45,0.00,,,-99.99,,2013-03-07 22:02:00,
2013-03-07 15:12:00,43.0,22.0,-100.00,SSE,151,4.0,8.0,43,0.00,,,-99.99,,2013-03-07 22:12:00,
2013-03-07 15:22:00,44.0,22.0,-100.00,North,11,7.0,12.0,42,0.00,,,-99.99,,2013-03-07 22:22:00,
2013-03-07 15:32:00,44.0,21.0,-100.00,North,1,4.0,9.0,39,0.00,,,-99.99,,2013-03-07 22:32:00,
2013-03-07 15:42:00,45.0,21.0,-100.00,ENE,73,3.0,7.0,38,0.00,,,-99.99,,2013-03-07 22:42:00,
2013-03-07 15:53:00,46.0,22.0,-100.00,ENE,65,2.0,6.0,38,0.00,,,-99.99,,2013-03-07 22:53:00,
2013-03-07 16:02:00,46.0,21.0,-100.00,North,360,3.0,6.0,37,0.00,,,-99.99,,2013-03-07 23:02:00,
2013-03-07 16:12:00,45.0,19.0,-100.00,North,0,2.0,5.0,35,0.00,,,-99.99,,2013-03-07 23:12:00,
2013-03-07 16:22:00,44.0,24.0,-100.00,East,90,4.0,9.0,44,0.00,,,-99.99,,2013-03-07 23:22:00,
2013-03-07 16:33:00,43.0,26.0,-100.00,East,95,5.0,9.0,50,0.00,,,-99.99,,2013-03-07 23:33:00,
2013-03-07 16:42:00,42.0,25.0,-100.00,East,96,6.0,11.0,49,0.00,,,-99.99,,2013-03-07 23:42:00,
2013-03-07 16:52:00,42.0,25.0,-100.00,ESE,109,9.0,11.0,51,0.00,,,-99.99,,2013-03-07 23:52:00,
2013-03-07 17:03:00,42.0,25.0,-100.00,ESE,104,7.0,11.0,52,0.00,,,-99.99,,2013-03-08 00:03:00,
2013-03-07 17:23:00,42.0,25.0,-100.00,SE,130,5.0,7.0,50,0.00,,,-99.99,,2013-03-08 00:23:00,
2013-03-07 17:33:00,43.0,24.0,-100.00,SE,137,3.0,6.0,48,0.00,,,-99.99,,2013-03-08 00:33:00,
2013-03-07 17:43:00,43.0,24.0,-100.00,ESE,123,3.0,5.0,46,0.00,,,-99.99,,2013-03-08 00:43:00,
2013-03-07 18:02:00,41.0,25.0,-100.00,ESE,121,4.0,7.0,52,0.00,,,-99.99,,2013-03-08 01:02:00,
2013-03-07 18:11:00,39.0,25.0,-100.00,SE,131,5.0,7.0,57,0.00,,,-99.99,,2013-03-08 01:11:00,
2013-03-07 18:21:00,39.0,25.0,-100.00,SE,127,6.0,7.0,57,0.00,,,-99.99,,2013-03-08 01:21:00,
2013-03-07 18:32:00,38.0,25.0,-100.00,SE,143,4.0,7.0,59,0.00,,,-99.99,,2013-03-08 01:32:00,
2013-03-07 18:42:00,38.0,25.0,-100.00,SSE,147,6.0,7.0,59,0.00,,,-99.99,,2013-03-08 01:42:00,
2013-03-07 18:51:00,38.0,24.0,-100.00,SE,130,6.0,9.0,57,0.00,,,-99.99,,2013-03-08 01:51:00,
2013-03-07 19:01:00,38.0,24.0,-100.00,SE,133,7.0,9.0,57,0.00,,,-99.99,,2013-03-08 02:01:00,
2013-03-07 19:11:00,38.0,24.0,-100.00,SE,133,8.0,10.0,57,0.00,,,-99.99,,2013-03-08 02:11:00,
2013-03-07 19:21:00,38.0,24.0,-100.00,SE,128,11.0,16.0,56,0.00,,,-99.99,,2013-03-08 02:21:00,
2013-03-07 19:32:00,39.0,24.0,-100.00,SE,126,14.0,17.0,55,0.00,,,-99.99,,2013-03-08 02:32:00,
2013-03-07 19:42:00,38.0,24.0,-100.00,SE,124,12.0,15.0,56,0.00,,,-99.99,,2013-03-08 02:42:00,
2013-03-07 19:52:00,38.0,24.0,-100.00,ESE,121,13.0,16.0,56,0.00,,,-99.99,,2013-03-08 02:52:00,
2013-03-07 20:02:00,38.0,24.0,-100.00,ESE,123,9.0,12.0,56,0.00,,,-99.99,,2013-03-08 03:02:00,
2013-03-07 20:11:00,38.0,24.0,-100.00,ESE,120,9.0,12.0,56,0.00,,,-99.99,,2013-03-08 03:11:00,
2013-03-07 20:22:00,38.0,23.0,-100.00,East,97,7.0,11.0,54,0.00,,,-99.99,,2013-03-08 03:22:00,
2013-03-07 20:32:00,37.0,23.0,-100.00,ESE,107,7.0,12.0,56,0.00,,,-99.99,,2013-03-08 03:32:00,
2013-03-07 20:42:00,38.0,23.0,-100.00,ESE,120,4.0,7.0,54,0.00,,,-99.99,,2013-03-08 03:42:00,
2013-03-07 20:52:00,37.0,24.0,-100.00,SE,126,3.0,7.0,58,0.00,,,-99.99,,2013-03-08 03:52:00,
2013-03-07 21:01:00,37.0,22.0,-100.00,SE,124,1.0,4.0,53,0.00,,,-99.99,,2013-03-08 04:01:00,
2013-03-07 21:11:00,38.0,22.0,-100.00,East,92,2.0,5.0,52,0.00,,,-99.99,,2013-03-08 04:11:00,
2013-03-07 21:21:00,36.0,23.0,-100.00,ESE,107,4.0,8.0,59,0.00,,,-99.99,,2013-03-08 04:21:00,
2013-03-07 21:32:00,37.0,20.0,-100.00,SE,128,2.0,6.0,50,0.00,,,-99.99,,2013-03-08 04:32:00,
2013-03-07 21:42:00,37.0,22.0,-100.00,East,92,2.0,4.0,54,0.00,,,-99.99,,2013-03-08 04:42:00,
2013-03-07 22:02:00,37.0,22.0,-100.00,ENE,75,3.0,4.0,56,0.00,,,-99.99,,2013-03-08 05:02:00,
2013-03-07 22:12:00,35.0,22.0,-100.00,SE,144,2.0,4.0,60,0.00,,,-99.99,,2013-03-08 05:12:00,
2013-03-07 22:22:00,34.0,22.0,-100.00,SE,136,2.0,4.0,61,0.00,,,-99.99,,2013-03-08 05:22:00,
2013-03-07 22:32:00,34.0,21.0,-100.00,SSE,164,4.0,6.0,58,0.00,,,-99.99,,2013-03-08 05:32:00,
2013-03-07 22:42:00,35.0,21.0,-100.00,South,175,6.0,7.0,55,0.00,,,-99.99,,2013-03-08 05:42:00,
2013-03-07 22:52:00,35.0,22.0,-100.00,South,169,4.0,7.0,57,0.00,,,-99.99,,2013-03-08 05:52:00,
2013-03-07 23:01:00,35.0,22.0,-100.00,SSW,193,2.0,4.0,58,0.00,,,-99.99,,2013-03-08 06:01:00,
2013-03-07 23:11:00,34.0,22.0,-100.00,South,185,1.0,3.0,59,0.00,,,-99.99,,2013-03-08 06:11:00,
2013-03-07 23:21:00,35.0,22.0,-100.00,SSW,208,4.0,6.0,59,0.00,,,-99.99,,2013-03-08 06:21:00,
2013-03-07 23:32:00,33.0,21.0,-100.00,SSE,162,4.0,7.0,62,0.00,,,-99.99,,2013-03-08 06:32:00,
2013-03-07 23:42:00,33.0,21.0,-100.00,South,169,3.0,6.0,61,0.00,,,-99.99,,2013-03-08 06:42:00,
2013-03-07 23:51:00,33.0,17.0,-100.00,SSE,152,6.0,9.0,52,0.00,,,-99.99,,2013-03-08 06:51:00,